Tracking 19246 objects as of 20-Aug-2018
HD Live streaming from Space Station
objects crossing your sky now

QBITO

Track QBITO now!
10-day predictions
QBITO is classified as:


NORAD ID: 42728
Int'l Code: 1998-067MH
Perigee: 352.1 km
Apogee: 353.9 km
Inclination: 51.6 °
Period: 91.5 minutes
Semi major axis: 6723 km
RCS: Unknown
Launch date: November 20, 1998
Source: Spain (SPN)
Launch site: TYURATAM MISSILE AND SPACE COMPLEX (TTMTR)
Uplink (MHz):
Downlink (MHz): 436.810
Beacon (MHz):
Mode: 9600bps GFSK
Call sign:
Status: Inactive

aabbcc
Your satellite tracking list
Your tracking list is empty




NASA's NSSDC Master Catalog

Two Line Element Set (TLE):
1 42728U 98067MH  18231.85577047  .00033203  00000-0  22598-3 0  9991
2 42728  51.6369  29.7241 0001396 120.1799 239.9339 15.74571635 70377
Source of the keplerian elements: AFSPC